Starlink 35983

operational
NORAD ID: 66902 Int'l Des: 2025-283 Owner: SPXS Country: US Constellation: starlink
LEOCIRCULAR

Starlink 35983について

説明を読み込み中...

リアルタイム位置

3D地球を読み込み中...

次回通過

高度履歴

Altitude vs Time

uPlot chart will show altitude changes over time

軌道要素

1 66902U 25283AA 25347.58336806 -.01414465 58419-3 -38283-2 0 9996
2 66902 53.1544 69.5795 0000954 57.2069 353.1282 15.93654122 2560
Epoch: Dec 13, 2025 • Age: 19 hours

現在のステータス

高度 298.4 km
速度 7.73 km/s
衛星直下点 8.40°N, 27.46°E
打ち上げ日 Dec 4, 2025
運用期間 9 days
タイプ internet

技術仕様

分類 Payload
質量 575.00 kg
乾燥質量 530.00 kg
総質量 575.00 kg
長さ 0.30 m
直径 4.10 m
スパン 29.00 m
形状 Box + pan
製造者 SPXS
バスタイプ Starlink V2MO
フェーズステータス In Orbit
所有者/国 SPXS/US

大規模コンステレーション

Loading constellations...